Madison, MN

10:50 PM CST on January 21, 2018 (GMT -0600)
Madison-Lac Qui Parle County

Weather History for KDXX - May, 2013

Change the Weather History Date:

Saturday, May 25, 2013

  Actual Average (KAQP) Record (KAQP)
Temperature  
Mean Temperature 55 °F -  
Max Temperature 59 °F 68 °F 82 °F (2014)
Min Temperature 51 °F 46 °F 35 °F (2007)
Degree Days  
Heating Degree Days 10    
Growing Degree Days 5 (Base 50)    
Moisture  
Dew Point 49 °F    
Average Humidity 81    
Maximum Humidity 88    
Minimum Humidity 72    
Precipitation  
Precipitation 0.00 in - - ()
Sea Level Pressure  
Sea Level Pressure 30.12 in    
Wind  
Wind Speed 19 mph (SE)    
Max Wind Speed 26 mph    
Max Gust Speed 34 mph    
Visibility 9 miles    
Events      
Averages and records for this station are not official NWS values.
T = Trace of Precipitation, MM = Missing Value Source: NWS Daily Summary

Daily Weather History Graph

Daily Weather History Graph

Search for Another Location

Airport or City:

Trip Planner

Search our weather history database for the weather conditions in past years. The results will help you decide how hot, cold, wet, or windy it might be!

Date:

Astronomy

May. 25, 2013 Rise Set
Actual Time 5:45 AM CDT 8:58 PM CDT
Civil Twilight 5:10 AM CDT 9:33 PM CDT
Nautical Twilight 4:24 AM CDT 10:19 PM CDT
Astronomical Twilight 3:28 AM CDT 11:16 PM CDT
Moon 9:46 PM CDT (5/25) 6:14 AM CDT (5/25)
Length of Visible Light 16h 23m
Length of Day
15h 12m
Full, 100% of the Moon is Illuminated
May 25
Full
May 31
Last Quarter
Jun 8
New
Jun 16
First Quarter
Jun 23
Full

Hourly Weather History & Observations

Time (CDT) Temp. Dew Point Humidity Pressure Visibility Wind Dir Wind Speed Gust Speed Precip Events Conditions
12:13 AM 57.2 °F 51.8 °F 82% 30.12 in 10.0 mi SE 17.3 mph 24.2 mph N/A   Overcast
12:34 AM 57.2 °F 51.8 °F 82% 30.12 in 10.0 mi SE 17.3 mph 20.7 mph N/A   Overcast
12:54 AM 57.2 °F 50.0 °F 77% 30.11 in 10.0 mi SE 17.3 mph 24.2 mph N/A   Mostly Cloudy
1:13 AM 55.4 °F 50.0 °F 82% 30.09 in 10.0 mi SE 18.4 mph - N/A   Mostly Cloudy
1:34 AM 55.4 °F 48.2 °F 77% 30.08 in 10.0 mi SE 15.0 mph 23.0 mph N/A   Mostly Cloudy
1:54 AM 55.4 °F 48.2 °F 77% 30.08 in 10.0 mi SE 17.3 mph - N/A   Mostly Cloudy
2:13 AM 55.4 °F 48.2 °F 77% 30.07 in 10.0 mi SE 17.3 mph - N/A   Mostly Cloudy
2:34 AM 55.4 °F 48.2 °F 77% 30.08 in 10.0 mi SE 16.1 mph - N/A   Mostly Cloudy
2:54 AM 55.4 °F 48.2 °F 77% 30.07 in 10.0 mi SE 18.4 mph - N/A   Mostly Cloudy
3:13 AM 53.6 °F 48.2 °F 82% 30.08 in 10.0 mi SE 16.1 mph 20.7 mph N/A   Mostly Cloudy
3:34 AM 53.6 °F 48.2 °F 82% 30.08 in 10.0 mi SE 16.1 mph 20.7 mph N/A   Mostly Cloudy
3:54 AM 53.6 °F 48.2 °F 82% 30.08 in 10.0 mi SE 16.1 mph - N/A   Scattered Clouds
4:13 AM 53.6 °F 48.2 °F 82% 30.08 in 10.0 mi SE 15.0 mph - N/A   Scattered Clouds
4:34 AM 53.6 °F 48.2 °F 82% 30.08 in 10.0 mi SE 18.4 mph - N/A   Scattered Clouds
4:54 AM 53.6 °F 48.2 °F 82% 30.08 in 10.0 mi SE 17.3 mph - N/A   Clear
5:13 AM 53.6 °F 48.2 °F 82% 30.08 in 10.0 mi SE 16.1 mph - N/A   Clear
5:34 AM 53.6 °F 48.2 °F 82% 30.09 in 10.0 mi SE 15.0 mph 20.7 mph N/A   Clear
5:54 AM 53.6 °F 48.2 °F 82% 30.08 in 10.0 mi SE 13.8 mph 20.7 mph N/A   Clear
6:13 AM 53.6 °F 46.4 °F 77% 30.09 in 10.0 mi SE 15.0 mph - N/A   Clear
6:34 AM 53.6 °F 46.4 °F 77% 30.08 in 10.0 mi SE 17.3 mph - N/A   Clear
6:53 AM 53.6 °F 46.4 °F 77% 30.08 in 10.0 mi SE 17.3 mph 24.2 mph N/A   Clear
7:14 AM 53.6 °F 46.4 °F 77% 30.09 in 10.0 mi SE 20.7 mph 24.2 mph N/A   Scattered Clouds
7:34 AM 55.4 °F 46.4 °F 72% 30.10 in 10.0 mi SE 19.6 mph 25.3 mph N/A   Mostly Cloudy
7:53 AM 55.4 °F 48.2 °F 77% 30.11 in 10.0 mi SE 18.4 mph 25.3 mph N/A   Mostly Cloudy
8:14 AM 55.4 °F 46.4 °F 72% 30.11 in 10.0 mi SE 18.4 mph 28.8 mph N/A   Mostly Cloudy
8:34 AM 55.4 °F 48.2 °F 77% 30.10 in 10.0 mi SE 19.6 mph - N/A   Mostly Cloudy
8:53 AM 55.4 °F 48.2 °F 77% 30.10 in 10.0 mi SE 20.7 mph 24.2 mph N/A   Mostly Cloudy
9:14 AM 55.4 °F 48.2 °F 77% 30.11 in 10.0 mi SE 26.5 mph 31.1 mph N/A   Scattered Clouds
9:34 AM 55.4 °F 48.2 °F 77% 30.12 in 10.0 mi SE 26.5 mph 33.4 mph N/A   Clear
9:53 AM 55.4 °F 48.2 °F 77% 30.12 in 10.0 mi SE 25.3 mph 34.5 mph N/A   Mostly Cloudy
10:14 AM 55.4 °F 48.2 °F 77% 30.12 in 10.0 mi SSE 26.5 mph 29.9 mph N/A   Overcast
10:34 AM 55.4 °F 48.2 °F 77% 30.12 in 10.0 mi SE 24.2 mph 27.6 mph N/A   Mostly Cloudy
10:53 AM 59.0 °F 50.0 °F 72% 30.12 in 10.0 mi SSE 24.2 mph - N/A   Scattered Clouds
11:14 AM 59.0 °F 50.0 °F 72% 30.12 in 10.0 mi SSE 21.9 mph - N/A   Scattered Clouds
11:34 AM 59.0 °F 51.8 °F 77% 30.12 in 10.0 mi SSE 20.7 mph - N/A   Scattered Clouds
11:53 AM 59.0 °F 51.8 °F 77% 30.13 in 10.0 mi SSE 19.6 mph - N/A   Mostly Cloudy
12:14 PM 57.2 °F 51.8 °F 82% 30.13 in 10.0 mi SSE 19.6 mph 24.2 mph N/A   Overcast
12:33 PM 57.2 °F 51.8 °F 82% 30.13 in 10.0 mi SSE 16.1 mph - N/A   Overcast
12:54 PM 57.2 °F 51.8 °F 82% 30.14 in 10.0 mi SE 18.4 mph - N/A   Overcast
1:14 PM 57.2 °F 50.0 °F 77% 30.14 in 10.0 mi SE 21.9 mph - N/A   Overcast
1:33 PM 57.2 °F 50.0 °F 77% 30.14 in 10.0 mi SE 18.4 mph - N/A   Overcast
1:54 PM 55.4 °F 50.0 °F 82% 30.14 in 10.0 mi SE 20.7 mph 25.3 mph N/A   Mostly Cloudy
2:14 PM 55.4 °F 50.0 °F 82% 30.14 in 10.0 mi SE 20.7 mph 24.2 mph N/A   Mostly Cloudy
2:33 PM 55.4 °F 48.2 °F 77% 30.14 in 10.0 mi ESE 19.6 mph 25.3 mph N/A   Mostly Cloudy
2:54 PM 55.4 °F 50.0 °F 82% 30.14 in 10.0 mi SE 17.3 mph 25.3 mph N/A   Mostly Cloudy
3:14 PM 55.4 °F 48.2 °F 77% 30.14 in 10.0 mi SE 19.6 mph - N/A   Mostly Cloudy
3:33 PM 55.4 °F 50.0 °F 82% 30.13 in 10.0 mi ESE 20.7 mph 24.2 mph N/A   Mostly Cloudy
3:54 PM 55.4 °F 48.2 °F 77% 30.13 in 10.0 mi ESE 20.7 mph 25.3 mph N/A   Mostly Cloudy
4:14 PM 55.4 °F 50.0 °F 82% 30.13 in 10.0 mi SE 20.7 mph - N/A   Mostly Cloudy
4:33 PM 55.4 °F 50.0 °F 82% 30.13 in 10.0 mi ESE 20.7 mph 26.5 mph N/A   Overcast
4:54 PM 55.4 °F 48.2 °F 77% 30.13 in 10.0 mi SE 23.0 mph 28.8 mph N/A   Overcast
5:13 PM 55.4 °F 48.2 °F 77% 30.13 in 10.0 mi ESE 20.7 mph 24.2 mph N/A   Overcast
5:34 PM 55.4 °F 48.2 °F 77% 30.13 in 10.0 mi SE 20.7 mph 26.5 mph N/A   Overcast
5:53 PM 53.6 °F 48.2 °F 82% 30.13 in 7.0 mi SE 18.4 mph 27.6 mph N/A   Overcast
6:14 PM 53.6 °F 50.0 °F 88% 30.14 in 4.0 mi ESE 18.4 mph 24.2 mph N/A   Overcast
6:34 PM 53.6 °F 48.2 °F 82% 30.13 in 3.0 mi ESE 21.9 mph 27.6 mph N/A   Overcast
6:53 PM 53.6 °F 48.2 °F 82% 30.13 in 10.0 mi ESE 19.6 mph 25.3 mph N/A   Overcast
7:14 PM 53.6 °F 48.2 °F 82% 30.12 in 10.0 mi SE 21.9 mph 32.2 mph N/A   Overcast
7:34 PM 53.6 °F 48.2 °F 82% 30.13 in 10.0 mi SE 20.7 mph 31.1 mph N/A   Overcast
7:53 PM 51.8 °F 48.2 °F 88% 30.13 in 5.0 mi SE 21.9 mph 26.5 mph N/A   Overcast
8:14 PM 51.8 °F 48.2 °F 88% 30.14 in 5.0 mi ESE 18.4 mph 26.5 mph N/A   Overcast
8:34 PM 51.8 °F 48.2 °F 88% 30.15 in 4.0 mi ESE 18.4 mph - N/A   Overcast
8:53 PM 51.8 °F 48.2 °F 88% 30.14 in 3.0 mi SE 19.6 mph - N/A   Overcast
9:14 PM 51.8 °F 48.2 °F 88% 30.14 in 5.0 mi SE 18.4 mph 23.0 mph N/A   Overcast
9:34 PM 51.8 °F 48.2 °F 88% 30.14 in 7.0 mi SE 17.3 mph 23.0 mph N/A   Overcast
9:53 PM 51.8 °F 48.2 °F 88% 30.14 in 5.0 mi SE 17.3 mph - N/A   Overcast
10:14 PM 51.8 °F 48.2 °F 88% 30.14 in 7.0 mi SE 15.0 mph - N/A   Overcast
10:34 PM 51.8 °F 48.2 °F 88% 30.14 in 10.0 mi SE 18.4 mph 24.2 mph N/A   Overcast
10:53 PM 51.8 °F 48.2 °F 88% 30.14 in 10.0 mi SE 19.6 mph 24.2 mph N/A   Overcast
11:14 PM 51.8 °F 48.2 °F 88% 30.13 in 10.0 mi SE 17.3 mph 26.5 mph N/A   Overcast
11:34 PM 51.8 °F 46.4 °F 82% 30.12 in 10.0 mi SE 23.0 mph 26.5 mph N/A   Overcast
11:53 PM 51.8 °F 46.4 °F 82% 30.12 in 10.0 mi SE 18.4 mph 25.3 mph N/A   Overcast